Flag for Switzerland Weather past 2 weeks in Baar, Zug, Switzerland

Now
41 °F

Quite cool.


Feels Like: 35 °F
Forecast: 33 / 46 °F
Wind: 9 mph from West

Location: Zurich Town / Ville.

Current Time: Oct 22, 2014 at 12:29:59 PM

Latest Report: Oct 22, 2014 at 11:00 AM


Visibility: N/A

Pressure: 30.21 "Hg

Humidity: 82%

Dew point: 36 °F

Location of BaarLocation

Historic Weather in Baar — Graph

°F

Baar temperature yesterday

Maximum temperature yesterday: 64 °F (at 1:00 PM)
Minimum temperature yesterday: 46 °F (at 9:00 PM)
Average temperature yesterday: 58 °F

Past Weeks' High & Low Weather Summary

 TemperatureHumidityPressure
High72 °F (Oct 9, 5:00 PM)100% (Oct 18, 6:00 AM)30.27 "Hg (Oct 18, 6:00 AM)
Low39 °F (Oct 22, 6:00 AM)46% (Oct 9, 3:00 PM)29.74 "Hg (Oct 21, 7:00 PM)
Average58 °F85%29.96 "Hg
* Reported Oct 7 11:00 AM — Oct 22 11:00 AM, Baar, Weather by CustomWeather, © 2014

Note: Actual official high and low records may vary slightly from our data, if they occured in-between our weather recording intervals... More about our weather records

Advertising

Baar weather history for previous 24 hours

 ConditionsComfort  
Time TempWeatherWind HumidityBarometerVisibility
11:00 AM
Oct 22
41 °FQuite cool.9 mph82%30.21 "HgN/A
10:40 AM41 °FQuite cool.9 mph84%30.21 "HgN/A
10:00 AM40 °FQuite cool.7 mph86%30.21 "HgN/A
9:00 AM40 °FChilly.12 mph86%30.19 "HgN/A
8:00 AM39 °FOvercast.10 mph91%30.16 "HgN/A
7:00 AM39 °FChilly.9 mph89%30.13 "HgN/A
6:00 AM39 °FChilly.9 mph86%30.11 "HgN/A
5:00 AM40 °FChilly.15 mph90%30.10 "HgN/A
4:00 AM42 °FQuite cool.9 mph85%30.08 "HgN/A
3:00 AM43 °FQuite cool.21 mph81%30.11 "HgN/A
2:00 AM43 °FQuite cool.7 mph86%30.10 "HgN/A
1:00 AM42 °FQuite cool.7 mph88%30.13 "HgN/A
12:00 AM47 °FCool.10 mph77%30.09 "HgN/A
11:00 PM
Oct 21
47 °FCool.10 mph72%30.06 "HgN/A
10:00 PM47 °FCool.14 mph82%30.01 "HgN/A
9:00 PM46 °FCool.14 mph87%29.92 "HgN/A
8:00 PM56 °FPassing clouds.24 mph86%29.75 "HgN/A
7:00 PM61 °FCool.22 mph64%29.74 "HgN/A
6:00 PM61 °FCool.22 mph63%29.77 "HgN/A
5:00 PM63 °FMild.20 mph56%29.79 "HgN/A
4:00 PM64 °FMild.20 mph53%29.82 "HgN/A
3:00 PM64 °FMild.20 mph56%29.85 "HgN/A
2:00 PM63 °FPartly sunny.12 mph73%29.87 "HgN/A
1:00 PM64 °FMild.14 mph72%29.90 "HgN/A
12:00 PM61 °FCool.8 mph88%29.94 "HgN/A
Weather by CustomWeather, © 2014

See weather overviewHow to use our weather pages